Wind_Speed
24 23 21 18 18 19 19 19 17 16 14 12 10 9 9 9 9 9 8 7 7 7 8 8 7 6 6 7 8 9 9 9 10 9 9 9 8 8 9 11 13 13
23 21 19 17 17 16 16 15 14 14 12 11 9 8 9 10 10 9 8 7 7 7 7 8 7 7 7 8 9 9 10 9 9 10 9 9 8 8 9 10 12 12
21 19 17 16 16 15 14 13 12 12 11 11 10 9 10 10 10 9 7 6 6 6 6 7 8 8 8 9 10 10 10 9 9 9 9 9 8 8 10 10 11 12
19 17 16 15 14 14 13 12 11 11 11 11 11 11 11 10 10 9 6 6 7 6 6 8 9 9 8 9 10 10 10 9 9 8 8 8 9 10 11 11 11 12
18 16 15 15 14 13 12 11 11 12 11 11 11 11 11 10 10 9 7 7 8 8 8 8 9 8 8 9 10 10 10 10 9 9 9 11 12 13 14 13 11 11
18 16 15 14 14 13 11 10 11 12 11 11 11 10 10 10 9 9 8 8 9 10 10 10 9 9 9 9 10 11 11 10 10 11 12 14 15 15 15 14 13 11
18 16 15 14 14 12 11 10 11 12 11 10 9 8 8 8 9 9 8 8 9 10 11 11 10 10 10 10 11 11 10 10 10 12 13 14 15 14 14 14 15 14
18 17 15 14 13 12 11 11 11 12 11 8 7 7 7 7 8 8 8 7 8 10 10 10 9 9 10 10 10 10 10 10 10 11 13 13 13 12 12 14 16 16
18 17 15 14 13 12 11 12 12 11 10 7 6 7 7 7 6 7 7 7 8 9 9 9 8 8 9 10 11 10 11 11 11 12 13 12 11 11 12 13 15 17
18 17 16 14 13 13 13 12 12 11 9 7 7 7 7 6 5 6 7 7 8 9 9 8 8 8 9 11 11 10 10 12 12 12 12 11 10 11 13 14 15 16
15 16 16 15 14 14 12 12 12 11 10 9 9 9 8 7 5 5 7 8 8 8 8 7 8 8 10 11 11 10 11 12 12 12 11 11 11 11 12 13 14 14
12 13 15 16 15 13 11 12 12 11 10 10 11 11 9 8 7 6 6 8 9 8 8 8 8 8 9 10 10 10 11 12 13 12 12 12 12 11 11 12 12 13
16 15 14 14 13 11 11 12 12 11 11 12 13 12 10 10 10 9 8 8 8 9 9 9 8 8 8 9 9 9 10 13 14 14 12 12 13 12 11 11 11 12
17 15 13 11 10 10 11 11 11 12 12 12 13 12 10 9 9 10 10 9 8 9 10 10 8 8 8 8 8 9 11 13 14 14 14 13 14 14 13 13 13 13
15 13 11 10 12 12 11 10 10 11 11 11 12 12 10 8 8 10 12 12 11 11 12 11 9 9 9 10 10 10 12 14 15 14 15 15 15 15 15 15 15 15
12 11 10 10 11 11 10 9 9 9 10 10 10 10 9 7 7 10 11 11 12 13 14 13 12 10 10 11 12 12 12 14 16 16 16 16 17 16 16 17 16 16
12 10 9 8 8 9 10 9 7 6 6 7 7 8 7 6 7 10 12 12 12 14 15 15 14 13 12 12 13 14 14 14 16 17 18 18 18 18 18 19 19 18
13 11 11 10 10 10 10 8 7 7 7 6 5 3 2 2 2 6 9 10 12 14 16 17 17 16 15 14 14 15 16 17 18 19 20 20 20 20 20 20 21 22
18 16 14 13 13 12 11 10 9 9 9 7 6 5 4 3 2 1 2 4 6 9 12 15 18 19 19 19 18 17 18 19 20 21 21 22 23 23 22 22 22 23
25 23 22 20 18 16 15 14 12 11 11 9 7 6 5 4 4 3 1 0 2 3 5 8 10 14 16 18 20 21 21 22 23 23 23 24 25 26 26 26 25 26
27 26 25 23 21 19 18 17 16 15 14 12 9 8 7 6 5 5 4 3 2 3 5 5 6 7 10 12 15 17 19 22 24 26 27 27 27 28 29 29 29 29
26 25 24 23 23 22 21 20 17 16 14 12 10 9 8 6 6 5 5 4 4 4 5 5 5 5 8 9 11 13 14 17 19 22 25 28 30 31 31 31 32 32
23 23 23 22 21 22 24 23 20 17 15 13 11 10 9 8 7 7 7 7 6 6 6 6 6 6 7 9 10 12 14 15 16 18 20 23 26 29 30 32 32 32
22 21 21 21 20 21 22 21 20 19 17 15 13 12 12 11 10 9 9 9 8 8 8 8 8 8 8 9 10 11 12 14 16 18 19 21 22 24 25 28 30 30
22 20 20 20 19 18 18 18 18 18 17 15 14 13 12 12 11 11 10 10 10 9 10 10 11 10 10 11 11 12 13 13 14 17 19 21 22 23 23 25 27 28
18 18 17 17 16 15 15 14 15 15 15 14 13 12 11 10 11 11 11 11 11 11 11 11 12 12 12 12 12 12 13 14 15 16 18 21 23 25 25 25 26 28
Wind_Direction
176 178 179 178 173 170 168 166 164 160 158 158 160 163 164 161 159 160 159 161 167 169 171 179 188 196 199 193 193 193 191 187 180 181 188 190 199 206 200 199 200 200
178 179 179 176 171 169 170 170 169 166 164 165 164 161 160 159 158 158 157 165 177 181 181 186 191 190 186 187 191 189 186 187 185 186 191 191 193 192 187 188 191 195
176 178 179 177 174 173 173 173 174 173 170 168 166 163 162 162 163 161 161 176 184 180 180 181 179 178 177 180 186 186 186 190 190 188 187 183 179 173 171 176 181 188
172 173 171 171 174 176 176 177 178 177 174 170 166 165 166 168 171 169 172 188 185 170 167 171 174 177 176 179 182 180 180 183 180 178 176 170 167 163 160 163 171 179
167 167 166 169 175 177 181 184 182 180 177 173 167 166 170 173 173 171 173 180 176 167 163 165 170 174 174 173 171 168 169 168 164 163 158 150 150 151 149 150 156 165
166 167 169 174 178 181 184 184 182 183 182 177 173 172 176 178 175 171 169 165 164 167 166 163 164 165 165 165 162 161 162 159 156 157 151 144 143 142 142 146 147 146
167 170 172 174 178 182 182 179 178 182 183 182 182 184 186 183 178 174 172 164 161 167 170 169 170 169 168 169 166 166 166 163 161 160 156 151 149 143 139 144 145 138
168 172 174 175 178 181 179 175 176 180 184 189 190 188 185 181 180 181 184 182 171 169 173 175 179 182 182 183 180 177 178 177 174 171 166 161 159 156 149 145 143 140
170 174 177 179 179 177 175 173 176 181 186 194 191 183 183 185 191 192 194 196 185 178 180 182 184 186 187 190 187 184 183 180 179 178 173 170 171 171 167 158 149 144
164 170 176 179 175 172 172 174 177 181 186 190 188 184 185 186 190 193 193 194 187 180 182 187 192 194 193 193 190 189 188 182 178 179 179 181 181 175 173 171 163 155
151 161 167 171 169 167 171 176 178 182 186 188 185 180 180 178 175 183 190 194 194 188 187 194 201 203 202 199 197 198 198 189 183 183 187 189 185 177 173 174 174 170
160 166 163 163 165 165 173 179 180 185 190 190 186 184 188 192 188 187 189 195 201 204 203 207 208 206 207 206 204 206 204 196 192 191 192 192 188 183 180 180 181 182
186 181 168 162 164 168 177 182 184 189 194 193 191 194 203 206 204 205 203 202 208 211 209 210 211 211 211 209 206 207 203 197 198 199 198 198 198 196 196 194 194 196
185 182 178 171 167 173 180 183 187 191 194 196 199 204 211 214 217 219 215 212 214 210 204 206 214 219 218 215 213 213 207 203 204 207 208 209 207 208 210 211 211 212
174 181 184 171 167 175 178 179 186 192 196 200 204 209 214 226 239 235 225 221 218 211 205 206 216 225 226 227 228 225 218 214 213 215 216 216 215 217 220 221 222 225
168 178 179 173 180 186 177 170 177 191 202 208 210 212 219 239 250 238 229 224 217 214 214 214 218 225 228 230 232 231 228 223 222 221 220 221 224 228 231 231 233 237
142 147 143 147 165 171 166 166 170 176 192 205 211 217 234 256 254 237 233 228 218 216 218 219 223 227 230 232 232 232 231 228 226 226 225 227 231 235 240 242 242 242
121 126 120 116 120 126 135 142 140 138 146 156 162 167 199 265 247 230 231 231 226 224 224 224 228 231 234 236 236 235 234 233 232 233 234 235 238 240 243 246 246 245
99 105 106 103 105 109 116 122 123 128 130 122 111 106 102 90 87 132 203 224 230 232 231 231 232 235 237 240 242 242 240 239 239 241 242 242 243 244 245 245 244 243
82 84 84 85 90 97 103 105 104 106 108 102 94 94 96 92 82 74 76 358 262 257 256 250 244 244 244 246 248 249 246 244 244 244 245 246 247 248 248 248 246 244
68 68 67 66 67 75 83 87 86 86 87 85 83 82 80 79 73 62 54 34 343 302 284 280 276 269 264 260 259 259 256 254 251 249 248 248 249 250 251 252 252 251
57 57 56 52 49 49 53 58 61 64 65 63 65 68 67 67 63 46 32 23 8 341 306 289 283 287 287 283 279 276 272 268 264 260 257 254 252 251 252 252 252 253
48 48 48 45 41 36 35 37 38 40 40 36 35 35 33 31 29 20 9 360 351 343 324 300 289 296 300 295 293 291 288 285 280 274 269 265 261 259 257 256 255 254
46 44 43 42 38 31 26 24 24 25 25 22 18 16 11 7 2 358 355 349 342 338 328 309 296 299 300 295 294 297 295 292 290 284 277 273 272 269 266 264 262 260
45 42 41 41 38 32 24 18 15 15 14 12 11 9 5 359 350 344 345 344 341 338 331 318 305 300 301 298 296 299 299 295 293 290 282 276 276 274 271 269 266 264
39 38 38 39 39 36 30 23 16 12 8 7 8 8 4 359 350 344 339 337 337 336 333 329 319 308 304 303 303 307 309 306 301 298 291 284 281 278 276 272 269 267
Height
811 813 814 816 817 818 819 820 821 822 823 824 825 826 826 827 827 827 827 827 827 827 827 827 827 828 828 828 829 830 831 833 834 835 835 836 837 838 838 839 840 842
812 814 815 816 817 818 819 821 822 823 824 825 825 826 827 828 828 828 828 828 828 828 828 828 828 828 828 829 829 830 831 832 833 834 835 836 837 837 838 839 840 841
812 814 815 816 817 818 820 821 822 823 824 825 826 826 827 828 829 829 830 829 829 829 829 828 829 829 829 830 830 831 832 833 833 834 835 836 837 837 838 839 840 841
812 814 815 817 818 819 820 821 822 823 824 825 826 827 828 828 829 830 830 830 830 830 830 830 830 830 830 831 831 832 833 834 834 835 835 836 837 837 838 839 840 840
812 814 815 817 818 819 820 821 823 824 825 826 827 828 829 829 830 830 831 831 831 831 831 831 831 831 831 832 832 833 834 834 835 835 836 836 837 838 839 839 840 840
811 813 815 817 818 819 821 822 823 824 825 827 828 829 829 830 830 831 831 831 831 832 832 832 832 832 832 833 833 834 834 835 836 836 837 837 838 839 840 840 841 841
811 813 814 816 817 819 820 821 823 824 826 827 828 829 830 831 831 832 832 832 832 833 833 833 834 834 834 834 834 835 835 836 836 837 838 838 839 840 841 841 841 841
810 812 814 815 817 818 820 821 823 825 826 827 828 829 830 831 832 833 833 833 833 834 834 834 835 835 835 835 835 836 836 836 837 838 838 839 840 841 842 842 842 842
809 812 813 815 816 818 819 821 823 825 826 827 828 829 831 832 833 833 834 834 834 834 835 835 836 836 836 836 837 837 837 837 838 839 839 840 840 841 842 843 843 843
809 811 813 815 816 818 819 821 823 825 826 827 828 829 830 832 833 833 834 835 835 835 836 836 836 837 837 837 838 838 838 839 839 840 840 840 841 842 842 843 844 844
812 813 813 815 817 818 820 822 823 825 826 827 829 829 831 832 833 833 834 835 836 836 837 837 837 838 838 838 839 839 839 839 840 840 841 841 842 842 843 844 844 845
815 816 815 816 817 818 820 822 824 825 827 828 829 830 831 832 832 833 834 835 836 837 838 838 838 839 839 839 839 839 840 840 840 841 841 842 842 843 844 844 845 846
815 817 817 817 818 819 821 822 824 826 827 829 830 831 831 832 833 833 834 835 836 837 838 838 839 839 839 840 840 840 840 840 841 841 841 842 843 843 844 845 845 846
816 818 818 818 818 819 821 823 825 826 828 829 830 831 832 832 833 833 834 835 836 836 838 838 839 840 840 840 840 841 841 841 841 842 842 842 843 843 844 845 845 846
817 818 819 819 819 820 822 823 824 826 828 829 831 831 832 833 833 834 834 835 835 836 837 838 839 840 840 841 841 841 842 842 842 842 842 843 843 843 844 845 845 846
816 818 818 819 820 821 822 822 824 826 828 830 831 832 832 833 833 833 834 834 835 836 837 838 839 840 840 841 842 842 842 842 843 843 843 843 844 844 844 844 845 845
817 818 819 820 821 821 821 822 823 825 828 830 831 832 832 832 832 833 833 834 835 836 837 838 839 840 840 841 841 842 842 843 843 843 844 844 844 844 844 844 845 845
817 818 820 822 822 822 822 823 824 825 827 829 831 831 832 832 832 832 833 834 835 835 836 837 838 839 840 841 841 841 842 842 842 843 843 844 844 844 844 844 844 844
818 819 820 822 822 823 823 824 825 825 827 829 831 831 832 832 833 833 833 834 834 835 836 836 837 838 839 840 840 841 841 841 842 842 842 842 842 843 843 843 843 843
820 821 822 823 824 825 825 825 826 826 827 829 831 832 831 832 833 833 833 833 834 834 835 836 837 838 839 839 840 840 840 841 841 841 841 841 841 841 841 841 841 841
823 824 825 826 827 827 827 827 827 827 828 830 831 831 832 832 832 833 833 833 833 833 834 835 836 837 838 838 839 839 839 839 839 839 839 839 839 839 839 839 839 839
826 826 827 828 829 829 829 828 827 828 828 830 831 831 832 832 833 833 833 833 833 833 833 833 834 835 836 837 837 838 838 838 838 837 837 837 836 836 836 836 837 837
828 829 829 829 830 830 830 829 829 829 829 829 830 831 832 832 832 833 833 833 833 832 832 832 833 833 834 834 835 835 835 836 836 835 835 834 833 833 833 833 834 834
831 831 831 831 831 832 832 832 831 831 831 830 831 831 832 832 832 833 833 833 833 833 832 832 832 832 832 832 832 832 832 832 833 833 832 832 831 831 831 831 831 831
833 833 833 833 833 834 834 835 834 834 833 833 832 832 833 833 833 833 833 834 834 833 833 832 832 832 832 831 831 830 830 829 829 830 830 829 829 828 828 828 828 828
837 837 836 836 836 836 837 837 837 836 836 835 834 834 834 833 833 833 834 834 834 833 833 832 832 831 831 831 830 830 829 828 827 827 827 827 826 825 825 824 825 825